ARIANE 5 R/B, 41383

Orbit data source: Space-Track

ARIANE 5 R/B, 41383 is space debris in HEO originally from a launch on Wed, 09 Mar 2016 UTC launched from the French Guiana (FRGUI). Debris objects in space refer to the collection of defunct objects orbiting the Earth. Examples of debris include non-operational satellites, rocket bodies, and fragments generated from explosions, collisions, or faulty payload assembly.

Loading next visibility...
Identifier
41383, 2016-014B
Orbit
HEO
Country
Flag of FRFR
Related business
Manufacturer
Airbus Safran
Mission
Spacecraft
Bus & Motor
ESC-A, Unknown motor
Mass
~5,000 kg wet, ~5,000 kg dry
Launch date (UTC)
2016-03-09 (10 years ago)
Launch vehicle
Unknown
Launch site
French Guiana (FRGUI)
Object type
Payload
Rocket body
Debris
Shape & HBR
Cyl + 1 Nozzle, 3.5 m
Radar Cross Section
41.627 m², Large (>1 m²)

Expand to show TLE details & history
Last TLE update: 17 hours ago

TLE from 17 hours ago
0 ARIANE 5 R/B
1 41383U 16014B   26036.89741784  .00048559  54250-6  15290-2 0  9998
2 41383   0.6014  44.1691 6544459 291.1540   3.9094  3.31523074 98354
Epoch: 2026-02-05T21:32Z
TLE epoch observation values (Epoch: 2026-02-05T21:32:16.901Z)
Latitude
-0.43062°
Longitude
-99.11464°
Altitude
421.442 km
Speed
9.811 km/s
True Right ascension
23h 59m 59s
True Declination
0° 25' 40"
Sunlit
Object was in daylight at epoch
Visualization orbit readout
Latitude
Unknown
Longitude
Unknown
Altitude
Unknown
Speed
Unknown
Apparent Right ascension
Unknown
Apparent Declination
Unknown
Sunlit
N/A
Visualization observer readout
Local Sidereal Time
16:57:00
Azimuth
Unknown
Elevation
Unknown
Doppler factor
Unknown
Orbital elements
Apogee altitude
25,063.229 km
Perigee altitude
188.831 km
Semi-major axis
19,004.167 km
Eccentricity
0.65445
Inclination
0.6014°
RAAN
44.1691°
Arg. of periapsis
291.154°
True anomaly
24.17435°
Mean anomaly
3.9094°
Eccentric anomaly
11.17934°
Mean motion
0.82846 °/min
Orbital period
434.54 mins
BSTAR
0.001529
Loading maneuver chart data...
Computing Atmospheric mass density...
Loading historical data...
Loading historical data...
Loading historical data...
Loading historical data...
Loading historical data...
Loading historical data...
Loading historical data...
Other satellites on launch #14 in the year 2016 (2016-03-09 UTC)

Documentation

Showing up to 5 results
|